WB2IFS-13 Weather Reports


time (UTC)temp
F
wind
direction
speed
knots
gust
knots
rain 1hr
in
rain 24hr
in
rain mn
in
humidity
%
barometer
mb
20260504081459 50 168 0.0 1.7 0.00 0.00 0.00 70 1016.4
20260504050001 46 191 0.0 0.0 0.00 0.00 0.00 73 1016.5
20260504044500 46 191 0.0 0.0 0.00 0.00 0.00 72 1016.4
20260504043000 45 191 0.0 0.0 0.00 0.00 0.00 72 1016.5
20260504041459 45 191 0.0 0.0 0.00 0.00 0.00 71 1016.6
20260504040003 46 191 0.0 0.0 0.00 0.00 0.00 69 1016.7
20260504034459 46 191 0.0 0.0 0.00 0.00 0.00 68 1016.6
20260504033000 46 191 0.0 0.0 0.00 0.00 0.00 67 1016.5
20260504031459 47 191 0.0 0.0 0.00 0.00 0.00 67 1016.4
20260504030002 47 191 0.0 0.0 0.00 0.00 0.00 67 1016.4
20260504024459 47 191 0.0 0.0 0.00 0.00 0.00 65 1016.3
20260504022959 47 191 0.0 0.0 0.00 0.00 0.00 65 1016.3
20260504021459 48 191 0.0 0.0 0.00 0.00 0.00 63 1016.1
20260504015959 48 191 0.0 0.9 0.00 0.00 0.00 63 1016.2
20260504014459 49 229 0.0 0.9 0.00 0.00 0.00 61 1016.1
20260504012958 50 228 0.0 0.9 0.00 0.00 0.00 57 1016.0
20260504011459 50 228 0.0 0.9 0.00 0.00 0.00 57 1015.8
20260504010001 51 229 0.0 0.0 0.00 0.00 0.00 55 1015.8
20260504004501 52 229 0.0 0.9 0.00 0.00 0.00 52 1015.8
20260504003000 53 229 0.0 0.0 0.00 0.00 0.00 49 1015.5
20260504001500 55 229 0.0 0.9 0.00 0.00 0.00 46 1015.4
20260504000001 56 228 0.0 0.9 0.00 0.00 0.00 44 1015.3
20260503234500 57 219 0.0 0.9 0.00 0.00 0.00 46 1015.3
20260503233000 58 243 0.0 1.7 0.00 0.00 0.00 36 1015.0
20260503231459 59 210 0.0 0.9 0.00 0.00 0.00 37 1015.1
20260503230001 60 115 0.9 7.0 0.00 0.00 0.00 35 1014.9
20260503224459 60 80 0.9 5.2 0.00 0.00 0.00 35 1015.0
20260503222959 61 146 0.9 3.5 0.00 0.00 0.00 38 1015.0
20260503221459 62 214 0.9 2.6 0.00 0.00 0.00 34 1015.1
20260503220002 63 293 0.9 3.5 0.00 0.00 0.00 32 1015.1
20260503214458 64 170 1.7 7.0 0.00 0.00 0.00 31 1015.1
20260503212958 64 25 1.7 5.2 0.00 0.00 0.00 33 1015.1
20260503211459 64 62 1.7 6.1 0.00 0.00 0.00 34 1015.3
20260503210001 64 53 1.7 4.3 0.00 0.00 0.00 33 1015.2
20260503204458 64 1 2.6 7.0 0.00 0.00 0.00 35 1015.1
20260503202959 64 172 1.7 7.8 0.00 0.00 0.00 32 1015.2
20260503201459 63 310 1.7 6.1 0.00 0.00 0.00 36 1015.5
20260503195959 63 208 1.7 4.3 0.00 0.00 0.00 33 1015.8
20260503194459 63 309 1.7 10.4 0.00 0.00 0.00 34 1015.9
20260503192959 63 220 1.7 6.1 0.00 0.00 0.00 38 1016.1
20260503191458 62 300 1.7 6.1 0.00 0.00 0.00 37 1016.2
20260503185959 62 309 1.7 6.1 0.00 0.00 0.00 37 1016.4
20260503184459 61 256 2.6 6.1 0.00 0.00 0.00 34 1016.5
20260503182959 61 319 1.7 7.0 0.00 0.00 0.00 37 1016.6
20260503181458 61 238 1.7 6.1 0.00 0.00 0.00 35 1016.8
20260503175959 60 295 1.7 7.8 0.00 0.00 0.00 35 1016.8
20260503174459 60 117 1.7 6.1 0.00 0.00 0.00 37 1016.9
20260503172958 59 332 1.7 5.2 0.00 0.00 0.00 36 1016.9
20260503171459 59 36 1.7 8.7 0.00 0.00 0.00 38 1017.0